AFL609 EFHK-UWKD

Flight info

Callsign AFL609
Flight time 2h 0m
Altitude 35000
Route ARVEP DCT INLOG T73 DESUD P164 ROKUR T784 ADMUL L94 UNORO T788 KOROM KOROM1T
Aircraft B738/M-SDE2E3FGHIRWXY/LB1

Departure

Time 2026-04-25 11:42
Airport Helsinki Vantaa Airport (EFHK)

Arrival

Time 2026-04-25 13:43
Airport Kazan International Airport (UWKD)
Time Latitude Longitude Altitude Speed Heading
2026-04-25 11:09 60.31150 24.96073 166 ft 0 kts 137°
2026-04-25 11:29 60.31153 24.96067 166 ft 2 kts 137°
2026-04-25 11:29 60.31165 24.96045 166 ft 2 kts 141°
2026-04-25 11:29 60.31174 24.96032 166 ft 2 kts 144°
2026-04-25 11:29 60.31193 24.96008 166 ft 2 kts 154°
2026-04-25 11:30 60.31203 24.96000 166 ft 2 kts 162°
2026-04-25 11:30 60.31219 24.95993 166 ft 2 kts 183°
2026-04-25 11:30 60.31235 24.96001 166 ft 2 kts 213°
2026-04-25 11:30 60.31245 24.96016 166 ft 1 kts 227°
2026-04-25 11:31 60.31245 24.96017 166 ft 0 kts 227°
2026-04-25 11:33 60.31243 24.96014 166 ft 3 kts 228°
2026-04-25 11:33 60.31222 24.95907 166 ft 12 kts 274°
2026-04-25 11:33 60.31221 24.95724 166 ft 15 kts 233°
2026-04-25 11:34 60.31171 24.95527 165 ft 17 kts 287°
2026-04-25 11:34 60.31252 24.95357 165 ft 17 kts 317°
2026-04-25 11:34 60.31335 24.95204 165 ft 16 kts 319°
2026-04-25 11:34 60.31413 24.95050 166 ft 15 kts 311°
2026-04-25 11:35 60.31477 24.94983 167 ft 7 kts 15°
2026-04-25 11:35 60.31516 24.95049 168 ft 8 kts 47°
2026-04-25 11:35 60.31571 24.95171 169 ft 17 kts 47°
2026-04-25 11:35 60.31660 24.95368 169 ft 21 kts 47°
2026-04-25 11:36 60.31757 24.95578 170 ft 20 kts 47°
2026-04-25 11:36 60.31849 24.95785 168 ft 19 kts 46°
2026-04-25 11:36 60.31929 24.95945 169 ft 13 kts 25°
2026-04-25 11:36 60.32006 24.95885 172 ft 13 kts 317°
2026-04-25 11:37 60.32070 24.95767 173 ft 12 kts 317°
2026-04-25 11:37 60.32134 24.95649 172 ft 13 kts 317°
2026-04-25 11:37 60.32198 24.95531 173 ft 12 kts 317°
2026-04-25 11:37 60.32260 24.95416 174 ft 12 kts 317°
2026-04-25 11:38 60.32324 24.95301 176 ft 15 kts 323°
2026-04-25 11:38 60.32439 24.95210 178 ft 20 kts 342°
2026-04-25 11:38 60.32580 24.95117 179 ft 22 kts 342°
2026-04-25 11:38 60.32722 24.95025 178 ft 21 kts 342°
2026-04-25 11:39 60.32859 24.94935 174 ft 20 kts 341°
2026-04-25 11:39 60.32970 24.94772 177 ft 20 kts 317°
2026-04-25 11:39 60.33071 24.94584 189 ft 19 kts 317°
2026-04-25 11:39 60.33125 24.94439 188 ft 6 kts 265°
2026-04-25 11:40 60.33104 24.94367 196 ft 6 kts 230°
2026-04-25 11:40 60.33090 24.94335 193 ft 0 kts 227°
2026-04-25 11:41 60.33036 24.94216 191 ft 42 kts 227°
2026-04-25 11:41 60.32655 24.93381 180 ft 117 kts 226°
2026-04-25 11:42 60.31986 24.91792 223 ft 175 kts 232°
2026-04-25 11:42 60.31120 24.89869 839 ft 189 kts 230°
2026-04-25 11:42 60.30208 24.87998 1759 ft 186 kts 229°
2026-04-25 11:42 60.29619 24.85762 2534 ft 189 kts 268°
2026-04-25 11:43 60.29999 24.83150 2776 ft 209 kts 302°
2026-04-25 11:43 60.30781 24.80562 3205 ft 222 kts 299°
2026-04-25 11:43 60.31488 24.77763 3957 ft 222 kts 297°
2026-04-25 11:43 60.32271 24.75062 4664 ft 225 kts 302°
2026-04-25 11:44 60.33099 24.72355 5386 ft 227 kts 301°
2026-04-25 11:44 60.33918 24.69565 6073 ft 231 kts 300°
2026-04-25 11:44 60.34808 24.66759 6447 ft 247 kts 313°
2026-04-25 11:44 60.36233 24.64813 7053 ft 258 kts 338°
2026-04-25 11:45 60.38033 24.64418 7837 ft 269 kts
2026-04-25 11:45 60.39768 24.65941 8639 ft 278 kts 30°
2026-04-25 11:45 60.41383 24.68178 9385 ft 284 kts 31°
2026-04-25 11:45 60.43043 24.70509 9791 ft 301 kts 31°
2026-04-25 11:46 60.44836 24.72997 9979 ft 324 kts 32°
2026-04-25 11:46 60.46503 24.76319 10134 ft 353 kts 54°
2026-04-25 11:46 60.47372 24.81075 10585 ft 371 kts 83°
2026-04-25 11:46 60.47145 24.86341 11272 ft 383 kts 103°
2026-04-25 11:47 60.46445 24.91567 12128 ft 386 kts 106°
2026-04-25 11:47 60.45670 24.96818 12857 ft 393 kts 107°
2026-04-25 11:47 60.44869 25.02155 13486 ft 399 kts 107°
2026-04-25 11:47 60.44071 25.07550 14191 ft 402 kts 107°
2026-04-25 11:48 60.43280 25.13007 14947 ft 406 kts 107°
2026-04-25 11:48 60.42490 25.18533 15626 ft 411 kts 107°
2026-04-25 11:48 60.41702 25.24108 16230 ft 413 kts 107°
2026-04-25 11:48 60.40908 25.29738 16726 ft 417 kts 107°
2026-04-25 11:49 60.40099 25.35483 17219 ft 421 kts 107°
2026-04-25 11:49 60.39291 25.41203 17709 ft 424 kts 108°
2026-04-25 11:49 60.38475 25.46964 18148 ft 427 kts 108°
2026-04-25 11:49 60.37651 25.52763 18583 ft 430 kts 108°
2026-04-25 11:50 60.36819 25.58587 19022 ft 433 kts 108°
2026-04-25 11:50 60.35983 25.64422 19441 ft 436 kts 108°
2026-04-25 11:50 60.35162 25.70126 19827 ft 439 kts 108°
2026-04-25 11:50 60.34303 25.76075 20221 ft 443 kts 108°
2026-04-25 11:51 60.33463 25.81876 20594 ft 446 kts 109°
2026-04-25 11:51 60.32573 25.88000 20998 ft 449 kts 109°
2026-04-25 11:51 60.31700 25.93983 21384 ft 452 kts 109°
2026-04-25 11:51 60.30807 26.00082 21732 ft 456 kts 109°
2026-04-25 11:52 60.29892 26.06309 22096 ft 459 kts 109°
2026-04-25 11:52 60.28976 26.12516 22453 ft 462 kts 109°
2026-04-25 11:52 60.28065 26.18672 22794 ft 467 kts 109°
2026-04-25 11:52 60.27117 26.25052 23168 ft 471 kts 109°
2026-04-25 11:53 60.26191 26.31282 23568 ft 472 kts 109°
2026-04-25 11:53 60.25241 26.37628 23969 ft 473 kts 109°
2026-04-25 11:53 60.24300 26.43994 24331 ft 476 kts 108°
2026-04-25 11:53 60.23396 26.50418 24663 ft 479 kts 107°
2026-04-25 11:54 60.22502 26.56902 25000 ft 482 kts 107°
2026-04-25 11:54 60.21606 26.63406 25345 ft 484 kts 107°
2026-04-25 11:54 60.19777 26.76489 25988 ft 488 kts 107°
2026-04-25 11:55 60.18845 26.83071 26312 ft 491 kts 108°
2026-04-25 11:55 60.17904 26.89679 26611 ft 493 kts 108°
2026-04-25 11:55 60.16987 26.96339 26906 ft 496 kts 105°
2026-04-25 11:55 60.16253 27.03115 27212 ft 498 kts 103°
2026-04-25 11:56 60.15588 27.09960 27514 ft 500 kts 102°
2026-04-25 11:56 60.14947 27.16842 27800 ft 502 kts 102°
2026-04-25 11:56 60.14303 27.23744 28071 ft 504 kts 102°
2026-04-25 11:56 60.13644 27.30667 28362 ft 506 kts 102°
2026-04-25 11:57 60.12970 27.37580 28746 ft 505 kts 103°
2026-04-25 11:57 60.12285 27.44483 29206 ft 503 kts 103°
2026-04-25 11:57 60.11594 27.51341 29582 ft 502 kts 103°
2026-04-25 11:57 60.10897 27.58204 29843 ft 502 kts 103°
2026-04-25 11:58 60.10194 27.65074 30102 ft 503 kts 103°
2026-04-25 11:58 60.09488 27.71944 30369 ft 503 kts 103°
2026-04-25 11:58 60.08780 27.78805 30671 ft 503 kts 103°
2026-04-25 11:58 60.08069 27.85657 30959 ft 502 kts 103°
2026-04-25 11:59 60.07356 27.92500 31226 ft 502 kts 103°
2026-04-25 11:59 60.06639 27.99344 31482 ft 502 kts 103°
2026-04-25 11:59 60.05918 28.06190 31774 ft 502 kts 103°
2026-04-25 12:00 60.04469 28.19836 32325 ft 501 kts 103°
2026-04-25 12:00 60.03739 28.26656 32601 ft 501 kts 103°
2026-04-25 12:00 60.02270 28.40274 33103 ft 501 kts 103°
2026-04-25 12:01 60.01532 28.47070 33374 ft 500 kts 103°
2026-04-25 12:01 60.00789 28.53870 33607 ft 500 kts 103°
2026-04-25 12:01 60.00046 28.60634 33822 ft 499 kts 103°
2026-04-25 12:01 59.99300 28.67403 34049 ft 498 kts 103°
2026-04-25 12:02 59.97802 28.80887 34421 ft 498 kts 103°
2026-04-25 12:02 59.96243 28.94399 34419 ft 499 kts 104°
2026-04-25 12:03 59.94651 29.07833 34424 ft 496 kts 104°
2026-04-25 12:03 59.93062 29.21168 34424 ft 493 kts 104°
2026-04-25 12:04 59.91471 29.34440 34427 ft 492 kts 104°
2026-04-25 12:04 59.89870 29.47682 34446 ft 492 kts 105°
2026-04-25 12:05 59.88253 29.60928 34435 ft 493 kts 105°
2026-04-25 12:05 59.86664 29.73839 34449 ft 494 kts 105°
2026-04-25 12:06 59.85012 29.87132 34439 ft 496 kts 105°
2026-04-25 12:06 59.83345 30.00445 34451 ft 497 kts 105°
2026-04-25 12:07 59.81658 30.13775 34440 ft 498 kts 105°
2026-04-25 12:07 59.79936 30.27106 34448 ft 499 kts 105°
2026-04-25 12:08 59.78194 30.40444 34437 ft 500 kts 106°
2026-04-25 12:08 59.76441 30.53783 34439 ft 499 kts 106°
2026-04-25 12:09 59.74681 30.67079 34455 ft 498 kts 106°
2026-04-25 12:09 59.72910 30.80335 34473 ft 497 kts 106°
2026-04-25 12:10 59.71129 30.93556 34466 ft 497 kts 106°
2026-04-25 12:10 59.69339 31.06752 34481 ft 496 kts 107°
2026-04-25 12:11 59.67190 31.19651 34477 ft 491 kts 119°
2026-04-25 12:11 59.63940 31.31481 34479 ft 489 kts 122°
2026-04-25 12:12 59.61178 31.41229 34490 ft 489 kts 121°
2026-04-25 12:12 59.57903 31.53003 34488 ft 490 kts 121°
2026-04-25 12:13 59.54115 31.66724 34486 ft 490 kts 121°
2026-04-25 12:13 59.51374 31.76600 34491 ft 490 kts 121°
2026-04-25 12:14 59.47844 31.88026 34480 ft 486 kts 132°
2026-04-25 12:14 59.43342 31.97876 34488 ft 485 kts 135°
2026-04-25 12:15 59.38852 32.07782 34495 ft 486 kts 134°
2026-04-25 12:15 59.34412 32.17675 34495 ft 487 kts 134°
2026-04-25 12:16 59.29899 32.27690 34503 ft 487 kts 134°
2026-04-25 12:16 59.25429 32.37556 34492 ft 488 kts 135°
2026-04-25 12:17 59.20915 32.47471 34500 ft 488 kts 135°
2026-04-25 12:17 59.16394 32.57358 34507 ft 488 kts 135°
2026-04-25 12:18 59.11837 32.67280 34511 ft 488 kts 135°
2026-04-25 12:18 59.07303 32.77112 34506 ft 488 kts 135°
2026-04-25 12:19 59.00491 32.91804 34511 ft 488 kts 135°
2026-04-25 12:20 58.95942 33.01566 34515 ft 488 kts 135°
2026-04-25 12:20 58.91384 33.11307 34522 ft 488 kts 135°
2026-04-25 12:21 58.86820 33.21015 34522 ft 488 kts 135°
2026-04-25 12:21 58.82242 33.30706 34531 ft 488 kts 135°
2026-04-25 12:22 58.77687 33.40313 34531 ft 489 kts 136°
2026-04-25 12:22 58.73093 33.49967 34539 ft 489 kts 136°
2026-04-25 12:23 58.68486 33.59609 34540 ft 489 kts 136°
2026-04-25 12:23 58.63874 33.69220 34545 ft 490 kts 136°
2026-04-25 12:24 58.59250 33.78815 34543 ft 490 kts 136°
2026-04-25 12:24 58.54614 33.88397 34545 ft 490 kts 136°
2026-04-25 12:25 58.49968 33.97957 34565 ft 490 kts 136°
2026-04-25 12:25 58.45317 34.07488 34556 ft 490 kts 136°
2026-04-25 12:26 58.40662 34.16989 34563 ft 490 kts 136°
2026-04-25 12:26 58.36001 34.26464 34562 ft 490 kts 136°
2026-04-25 12:27 58.31334 34.35910 34568 ft 490 kts 136°
2026-04-25 12:27 58.26665 34.45325 34573 ft 489 kts 136°
2026-04-25 12:28 58.21988 34.54719 34576 ft 489 kts 136°
2026-04-25 12:28 58.17077 34.63548 34587 ft 486 kts 143°
2026-04-25 12:29 58.11857 34.71657 34584 ft 485 kts 144°
2026-04-25 12:29 58.06619 34.79732 34589 ft 486 kts 144°
2026-04-25 12:30 58.01411 34.87864 34597 ft 486 kts 144°
2026-04-25 12:30 57.96210 34.96011 34597 ft 486 kts 144°
2026-04-25 12:31 57.91002 35.04142 34604 ft 486 kts 144°
2026-04-25 12:31 57.85791 35.12241 34604 ft 486 kts 144°
2026-04-25 12:32 57.80573 35.20315 34609 ft 486 kts 144°
2026-04-25 12:32 57.75349 35.28369 34613 ft 486 kts 144°
2026-04-25 12:33 57.70124 35.36395 34619 ft 486 kts 144°
2026-04-25 12:33 57.64896 35.44395 34624 ft 486 kts 144°
2026-04-25 12:34 57.60337 35.53775 34641 ft 493 kts 125°
2026-04-25 12:34 57.57372 35.65317 34646 ft 496 kts 111°
2026-04-25 12:35 57.55096 35.77371 34628 ft 497 kts 110°
2026-04-25 12:35 57.52749 35.89465 34640 ft 497 kts 111°
2026-04-25 12:36 57.51936 35.93539 34636 ft 497 kts 111°
2026-04-25 12:36 57.48069 36.12718 34642 ft 497 kts 111°
2026-04-25 12:37 57.45652 36.24744 34643 ft 497 kts 111°
2026-04-25 12:37 57.43231 36.36755 34642 ft 497 kts 111°
2026-04-25 12:38 57.40798 36.48744 34644 ft 496 kts 112°
2026-04-25 12:38 57.38353 36.60716 34649 ft 496 kts 112°
2026-04-25 12:39 57.35897 36.72665 34640 ft 496 kts 112°
2026-04-25 12:39 57.33429 36.84600 34648 ft 496 kts 112°
2026-04-25 12:40 57.30953 36.96502 34644 ft 496 kts 112°
2026-04-25 12:40 57.28464 37.08402 34642 ft 496 kts 112°
2026-04-25 12:41 57.25966 37.20274 34648 ft 496 kts 112°
2026-04-25 12:41 57.24899 37.25324 34646 ft 496 kts 112°
2026-04-25 12:42 57.23946 37.29824 34646 ft 496 kts 112°
2026-04-25 12:42 57.21427 37.41673 34648 ft 496 kts 112°
2026-04-25 12:43 57.18900 37.53503 34649 ft 496 kts 112°
2026-04-25 12:43 57.15398 37.71431 34654 ft 497 kts 106°
2026-04-25 12:44 57.13666 37.83758 34655 ft 497 kts 104°
2026-04-25 12:45 57.11092 38.02251 34653 ft 497 kts 105°
2026-04-25 12:45 57.08396 38.20677 34655 ft 498 kts 105°
2026-04-25 12:46 57.06581 38.32866 34655 ft 498 kts 105°
2026-04-25 12:46 57.04745 38.45131 34657 ft 498 kts 105°
2026-04-25 12:47 57.02899 38.57381 34657 ft 498 kts 106°
2026-04-25 12:47 57.01040 38.69631 34658 ft 498 kts 106°
2026-04-25 12:48 56.99171 38.81855 34658 ft 498 kts 106°
2026-04-25 12:48 56.97288 38.94074 34662 ft 498 kts 106°
2026-04-25 12:49 56.95397 39.06261 34663 ft 497 kts 106°
2026-04-25 12:49 56.93492 39.18448 34663 ft 497 kts 106°
2026-04-25 12:50 56.91578 39.30609 34667 ft 497 kts 106°
2026-04-25 12:50 56.89651 39.42760 34669 ft 497 kts 106°
2026-04-25 12:51 56.87711 39.54910 34675 ft 497 kts 107°
2026-04-25 12:51 56.85760 39.67043 34677 ft 498 kts 107°
2026-04-25 12:52 56.83799 39.79160 34679 ft 498 kts 107°
2026-04-25 12:52 56.81825 39.91273 34682 ft 498 kts 107°
2026-04-25 12:53 56.79845 40.03384 34677 ft 498 kts 107°
2026-04-25 12:53 56.77859 40.15479 34683 ft 498 kts 107°
2026-04-25 12:54 56.75862 40.27568 34680 ft 498 kts 107°
2026-04-25 12:54 56.73850 40.39656 34684 ft 498 kts 107°
2026-04-25 12:55 56.72170 40.49691 34682 ft 499 kts 107°
2026-04-25 12:55 56.69791 40.63794 34679 ft 499 kts 107°
2026-04-25 12:56 56.67743 40.75856 34681 ft 499 kts 107°
2026-04-25 12:56 56.65681 40.87913 34677 ft 499 kts 107°
2026-04-25 12:57 56.63612 40.99946 34678 ft 499 kts 107°
2026-04-25 12:57 56.61125 41.11702 34678 ft 498 kts 120°
2026-04-25 12:58 56.57180 41.21968 34679 ft 496 kts 129°
2026-04-25 12:58 56.52981 41.31796 34677 ft 496 kts 129°
2026-04-25 12:59 56.48786 41.41721 34677 ft 497 kts 129°
2026-04-25 12:59 56.44611 41.51690 34678 ft 497 kts 129°
2026-04-25 13:00 56.41822 41.58347 34677 ft 497 kts 129°
2026-04-25 13:00 56.36247 41.71585 34679 ft 498 kts 129°
2026-04-25 13:01 56.32044 41.81510 34673 ft 498 kts 129°
2026-04-25 13:01 56.27831 41.91421 34677 ft 498 kts 129°
2026-04-25 13:02 56.23613 42.01307 34673 ft 498 kts 129°
2026-04-25 13:02 56.20143 42.12055 34684 ft 500 kts 110°
2026-04-25 13:03 56.18612 42.24186 34686 ft 499 kts 94°
2026-04-25 13:03 56.18026 42.36597 34670 ft 499 kts 93°
2026-04-25 13:04 56.17427 42.49013 34671 ft 499 kts 94°
2026-04-25 13:04 56.16754 42.61411 34672 ft 500 kts 94°
2026-04-25 13:05 56.16045 42.73817 34665 ft 500 kts 95°
2026-04-25 13:05 56.15325 42.86215 34668 ft 499 kts 95°
2026-04-25 13:06 56.14597 42.98592 34667 ft 499 kts 95°
2026-04-25 13:06 56.13859 43.10958 34664 ft 499 kts 95°
2026-04-25 13:07 56.13138 43.23323 34657 ft 498 kts 92°
2026-04-25 13:07 56.12942 43.35627 34658 ft 497 kts 88°
2026-04-25 13:08 56.12921 43.48003 34645 ft 497 kts 88°
2026-04-25 13:08 56.12851 43.60387 34644 ft 497 kts 89°
2026-04-25 13:09 56.12723 43.72773 34664 ft 497 kts 89°
2026-04-25 13:09 56.12569 43.85158 34666 ft 497 kts 89°
2026-04-25 13:10 56.12405 43.97541 34667 ft 497 kts 89°
2026-04-25 13:10 56.12231 44.09928 34661 ft 497 kts 89°
2026-04-25 13:11 56.12045 44.22314 34652 ft 497 kts 89°
2026-04-25 13:11 56.11847 44.34705 34640 ft 497 kts 89°
2026-04-25 13:12 56.11637 44.47091 34637 ft 497 kts 89°
2026-04-25 13:12 56.11490 44.55373 34636 ft 497 kts 89°
2026-04-25 13:13 56.11182 44.71847 34628 ft 497 kts 89°
2026-04-25 13:13 56.10943 44.84208 34636 ft 496 kts 89°
2026-04-25 13:14 56.10696 44.96560 34633 ft 496 kts 90°
2026-04-25 13:14 56.10426 45.08906 34628 ft 496 kts 90°
2026-04-25 13:15 56.10132 45.21159 34628 ft 496 kts 90°
2026-04-25 13:15 56.09827 45.33492 34615 ft 495 kts 90°
2026-04-25 13:16 56.09512 45.45804 34620 ft 495 kts 90°
2026-04-25 13:16 56.09186 45.58118 34613 ft 495 kts 90°
2026-04-25 13:17 56.08847 45.70415 34609 ft 494 kts 90°
2026-04-25 13:17 56.08497 45.82718 34609 ft 494 kts 91°
2026-04-25 13:18 56.08134 45.95003 34605 ft 494 kts 91°
2026-04-25 13:18 56.07759 46.07282 34598 ft 494 kts 91°
2026-04-25 13:19 56.07373 46.19563 34598 ft 494 kts 91°
2026-04-25 13:19 56.07107 46.27781 34597 ft 494 kts 91°
2026-04-25 13:20 56.06634 46.42064 34592 ft 495 kts 91°
2026-04-25 13:20 56.05794 46.54292 34584 ft 498 kts 103°
2026-04-25 13:21 56.03427 46.65963 34272 ft 505 kts 111°
2026-04-25 13:21 56.02117 46.71810 33714 ft 506 kts 110°
2026-04-25 13:21 56.00817 46.77637 33033 ft 504 kts 110°
2026-04-25 13:22 55.99534 46.83470 32280 ft 505 kts 109°
2026-04-25 13:22 55.98264 46.89320 31546 ft 505 kts 109°
2026-04-25 13:22 55.96999 46.95184 30790 ft 506 kts 108°
2026-04-25 13:23 55.94458 47.06957 29097 ft 511 kts 108°
2026-04-25 13:23 55.93174 47.12871 28152 ft 512 kts 108°
2026-04-25 13:23 55.91886 47.18767 27540 ft 506 kts 108°
2026-04-25 13:23 55.90605 47.24609 26699 ft 506 kts 108°
2026-04-25 13:24 55.89330 47.30415 26070 ft 501 kts 108°
2026-04-25 13:24 55.88065 47.36164 25443 ft 496 kts 108°
2026-04-25 13:24 55.86811 47.41852 24849 ft 491 kts 108°
2026-04-25 13:24 55.85566 47.47487 24262 ft 486 kts 108°
2026-04-25 13:25 55.84331 47.53067 23650 ft 483 kts 108°
2026-04-25 13:25 55.83100 47.58613 23023 ft 480 kts 108°
2026-04-25 13:25 55.81879 47.64101 22354 ft 475 kts 108°
2026-04-25 13:25 55.80668 47.69531 21741 ft 469 kts 109°
2026-04-25 13:26 55.79470 47.74890 21162 ft 463 kts 109°
2026-04-25 13:26 55.78284 47.80177 20576 ft 458 kts 110°
2026-04-25 13:26 55.77109 47.85381 20160 ft 449 kts 110°
2026-04-25 13:26 55.75948 47.90484 19628 ft 443 kts 111°
2026-04-25 13:27 55.74798 47.95524 19090 ft 438 kts 111°
2026-04-25 13:27 55.73660 48.00505 18542 ft 434 kts 111°
2026-04-25 13:27 55.72531 48.05437 17997 ft 429 kts 112°
2026-04-25 13:27 55.71412 48.10315 17391 ft 425 kts 112°
2026-04-25 13:28 55.70305 48.15131 16813 ft 420 kts 112°
2026-04-25 13:28 55.69578 48.18289 16454 ft 416 kts 112°
2026-04-25 13:28 55.68126 48.24580 15730 ft 409 kts 113°
2026-04-25 13:28 55.67050 48.29233 15195 ft 405 kts 113°
2026-04-25 13:29 55.65989 48.33812 14677 ft 400 kts 113°
2026-04-25 13:29 55.64938 48.38343 14156 ft 396 kts 113°
2026-04-25 13:29 55.63894 48.42829 13660 ft 392 kts 113°
2026-04-25 13:30 55.61736 48.51586 12644 ft 383 kts 120°
2026-04-25 13:30 55.60431 48.55642 12162 ft 377 kts 123°
2026-04-25 13:30 55.59069 48.59582 11663 ft 374 kts 123°
2026-04-25 13:31 55.56362 48.67368 10647 ft 369 kts 123°
2026-04-25 13:31 55.55054 48.71202 10415 ft 359 kts 123°
2026-04-25 13:31 55.53796 48.74927 10266 ft 348 kts 123°
2026-04-25 13:31 55.52577 48.78548 10113 ft 339 kts 123°
2026-04-25 13:32 55.51391 48.82078 9965 ft 330 kts 123°
2026-04-25 13:32 55.50237 48.85509 9828 ft 321 kts 123°
2026-04-25 13:32 55.49112 48.88850 9691 ft 313 kts 123°
2026-04-25 13:32 55.48012 48.92113 9570 ft 306 kts 123°
2026-04-25 13:33 55.46927 48.95327 9261 ft 302 kts 123°
2026-04-25 13:33 55.45856 48.98495 8998 ft 300 kts 123°
2026-04-25 13:33 55.44790 49.01641 8714 ft 298 kts 123°
2026-04-25 13:33 55.44087 49.03715 8510 ft 298 kts 123°
2026-04-25 13:34 55.42660 49.07911 8019 ft 300 kts 123°
2026-04-25 13:34 55.41586 49.11068 7662 ft 301 kts 123°
2026-04-25 13:34 55.40509 49.14228 7290 ft 300 kts 123°
2026-04-25 13:34 55.39442 49.17362 6933 ft 299 kts 123°
2026-04-25 13:35 55.38372 49.20496 6564 ft 297 kts 123°
2026-04-25 13:35 55.37318 49.23579 6204 ft 291 kts 123°
2026-04-25 13:35 55.36284 49.26597 5853 ft 285 kts 123°
2026-04-25 13:35 55.35455 49.29715 5485 ft 281 kts 102°
2026-04-25 13:36 55.35468 49.33101 5187 ft 279 kts 73°
2026-04-25 13:36 55.36303 49.36124 4796 ft 277 kts 48°
2026-04-25 13:36 55.37716 49.38330 4428 ft 267 kts 32°
2026-04-25 13:36 55.39203 49.40238 4113 ft 264 kts 32°
2026-04-25 13:37 55.40671 49.42124 4005 ft 258 kts 32°
2026-04-25 13:37 55.42106 49.43976 3993 ft 254 kts 31°
2026-04-25 13:37 55.43569 49.45769 3758 ft 259 kts 30°
2026-04-25 13:37 55.45067 49.47552 3498 ft 260 kts 30°
2026-04-25 13:38 55.46558 49.49335 3325 ft 255 kts 30°
2026-04-25 13:38 55.47980 49.51048 3256 ft 240 kts 30°
2026-04-25 13:38 55.49408 49.52267 3142 ft 218 kts
2026-04-25 13:38 55.50791 49.51889 3030 ft 193 kts 327°
2026-04-25 13:39 55.51778 49.50485 2940 ft 175 kts 307°
2026-04-25 13:39 55.52473 49.48820 2837 ft 163 kts 302°
2026-04-25 13:39 55.53129 49.47141 2413 ft 171 kts 302°
2026-04-25 13:39 55.53803 49.45411 2157 ft 170 kts 302°
2026-04-25 13:40 55.54464 49.43720 1991 ft 164 kts 302°
2026-04-25 13:40 55.55096 49.42102 1866 ft 157 kts 302°
2026-04-25 13:40 55.55718 49.40524 1733 ft 156 kts 303°
2026-04-25 13:40 55.56344 49.38949 1671 ft 159 kts 301°
2026-04-25 13:41 55.56976 49.37318 1459 ft 161 kts 302°
2026-04-25 13:41 55.57587 49.35740 1220 ft 152 kts 302°
2026-04-25 13:41 55.58147 49.34285 1044 ft 136 kts 302°
2026-04-25 13:41 55.58666 49.32944 837 ft 128 kts 301°
2026-04-25 13:42 55.59189 49.31588 677 ft 140 kts 302°
2026-04-25 13:42 55.59745 49.30147 517 ft 144 kts 302°
2026-04-25 13:42 55.60300 49.28706 417 ft 133 kts 303°
2026-04-25 13:42 55.60757 49.27536 419 ft 98 kts 304°
2026-04-25 13:43 55.61045 49.26800 410 ft 27 kts 316°
2026-04-25 13:43 55.61133 49.26814 415 ft 11 kts 34°
2026-04-25 13:43 55.61208 49.26918 410 ft 15 kts 52°
2026-04-25 13:43 55.61184 49.27094 410 ft 16 kts 124°
2026-04-25 13:44 55.61116 49.27268 409 ft 18 kts 125°
2026-04-25 13:44 55.61040 49.27460 411 ft 20 kts 125°
2026-04-25 13:44 55.60963 49.27661 415 ft 20 kts 123°
2026-04-25 13:44 55.60888 49.27857 415 ft 19 kts 125°
2026-04-25 13:45 55.60811 49.28050 408 ft 19 kts 124°
2026-04-25 13:45 55.60736 49.28240 412 ft 19 kts 125°
2026-04-25 13:45 55.60665 49.28425 412 ft 18 kts 124°
2026-04-25 13:45 55.60599 49.28608 412 ft 17 kts 112°
2026-04-25 13:46 55.60585 49.28813 415 ft 17 kts 95°
2026-04-25 13:46 55.60575 49.29014 415 ft 16 kts 94°
2026-04-25 13:46 55.60616 49.29184 413 ft 15 kts 41°
2026-04-25 13:46 55.60701 49.29291 415 ft 15 kts 34°
2026-04-25 13:47 55.60785 49.29391 415 ft 14 kts 34°
2026-04-25 13:47 55.60796 49.29528 411 ft 13 kts 127°
2026-04-25 13:47 55.60744 49.29655 415 ft 13 kts 122°
2026-04-25 13:47 55.60696 49.29782 412 ft 12 kts 126°
2026-04-25 13:48 55.60670 49.29870 412 ft 7 kts 92°
2026-04-25 13:48 55.60693 49.29933 413 ft 6 kts 37°
2026-04-25 13:48 55.60716 49.29963 413 ft 0 kts 34°